Location: *
(43.0366°S, 179.9932°W)
Time: 15:58:28
(UTC+00:00)

Daily predictions for brighter satellites

Satellite Brightness Start Highest point End
(mag) Time Altitude Azimuth Time Altitude Azimuth Time Altitude Azimuth
CZ-3 R/B 4.5 13:41:17 10° WNW 14:36:51 51° NNE 14:47:46 10° ENE
SL-16 R/B 4.5 15:57:33 10° SSE 15:59:10 19° SSE 15:59:10 19° SSE
BREEZE-M DEB (TANK) 3.8 16:19:22 69° NE 16:19:22 69° NE 16:31:18 10° ENE
USA 215 4.5 16:19:50 10° SE 16:24:36 28° S 16:24:36 28° S
CZ-4C R/B 3.4 16:33:33 44° SSW 16:33:33 44° SSW 16:38:53 10° SSE
BREEZE-M DEB (TANK) 4.4 16:36:27 33° E 16:36:27 33° E 16:40:20 10° ESE
Cosmos 2227 Rocket 4.2 16:33:18 10° NNE 16:37:54 26° ENE 16:42:33 10° SE
Cosmos 2237 Rocket 3.2 16:36:00 31° SSE 16:38:07 43° ESE 16:43:31 10° NE
BlueWalker 3 3.9 16:47:09 27° ENE 16:47:09 27° ENE 16:49:01 10° ENE
CENTAUR R/B 3.0 16:42:41 24° NNW 16:48:11 78° ENE 16:55:14 10° SE
SMAP 4.3 16:48:40 10° NE 16:53:03 41° ESE 16:56:38 15° S
Cosmos 2297 Rocket 2.4 16:50:00 26° N 16:53:14 69° ENE 16:58:55 10° SSE
Meteor 2-10 Rocket 4.2 16:47:52 12° S 16:53:15 62° ESE 16:59:01 10° NNE
SL-16 R/B 4.4 16:50:23 10° S 16:54:35 20° SE 16:58:47 10° E
Meteor 1-13 Rocket 4.2 16:53:22 51° NNW 16:54:59 79° W 17:01:03 10° S
Cosmos 1570 Rocket 3.9 16:56:11 81° NNW 16:56:11 81° NNW 17:01:14 10° NNE
Cosmos 1980 4.0 16:55:08 35° S 16:57:27 63° ESE 17:03:03 10° NE
NOSS 0 Rocket 3.8 16:56:19 59° SSW 16:57:37 85° WNW 17:03:47 10° NNE
COSMOS 2428 3.2 17:01:08 45° NNW 17:01:08 45° NNW 17:05:21 10° N
Cosmos 371 Rocket 3.3 17:03:59 34° N 17:06:04 78° ENE 17:10:55 10° SSE
Meteor 1-22 Rocket 3.9 17:04:35 41° SSW 17:06:31 86° W 17:11:53 10° N
Meteor 2-12 Rocket 4.3 17:01:03 10° NNW 17:07:07 64° W 17:13:18 10° S
Cosmos 2228 Rocket 3.9 17:03:10 10° N 17:07:30 53° E 17:11:57 10° SSE
Cosmos 158 Rocket 3.9 17:07:15 54° SSW 17:08:33 86° WNW 17:13:55 10° NNE
Cosmos 2266 Rocket 4.4 17:02:47 10° N 17:08:45 61° E 17:14:52 10° SSE
Cosmos 1486 Rocket 3.9 17:12:56 10° NNW 17:18:16 87° WSW 17:23:37 10° SSE
CORIOLIS 4.3 17:13:17 10° NNE 17:18:43 75° ESE 17:24:14 10° S
Cosmos 1818 3.8 17:18:57 29° SSW 17:21:42 65° SE 17:27:02 10° NE
NOSS 3-2 (A) 4.2 17:14:53 10° NNW 17:23:59 86° NE 17:31:59 10° SE
SJ-7 4.2 17:23:28 10° NNE 17:27:25 88° ESE 17:29:01 35° SSW
IRIDIUM 106 4.2 17:22:17 10° S 17:27:38 87° W 17:32:53 10° N
COSMOS 2455 3.9 17:29:21 26° SW 17:29:21 26° SW 17:33:45 10° SSE
DMSP B5D2-2 4.4 17:23:49 10° S 17:28:46 42° WSW 17:28:46 42° WSW
Okean 3 4.1 17:24:54 10° N 17:28:56 56° E 17:33:01 10° SSE
Cosmos 1346 Rocket 3.8 17:30:32 32° NNW 17:30:32 32° NNW 17:32:50 10° N
Cosmos 1553 Rocket 4.1 17:26:57 12° SSW 17:32:23 49° W 17:38:13 10° NNW
Spot 4 Rocket 4.1 17:28:31 10° N 17:33:36 56° W 17:36:43 23° SSW
PSLV R/B 3.6 17:34:28 10° N 17:38:29 48° W 17:39:00 45° WSW
Aureole 3 3.2 17:41:35 10° N 17:44:44 59° E 17:47:44 10° SSE
Cosmos 967 Rocket 4.4 17:39:08 10° NW 17:45:22 79° WSW 17:51:43 10° SSE
SL-16 R/B 4.3 17:42:51 10° SSW 17:44:16 14° SSW 17:44:16 14° SSW
Cosmos 1315 Rocket 2.6 17:42:41 10° NNW 17:46:36 76° WSW 17:50:35 10° S
Cosmos 2219 4.1 17:41:35 10° N 17:47:09 52° ENE 17:52:46 10° SE
Meteor 1-21 4.1 17:41:37 10° NNW 17:47:15 74° W 17:53:02 10° S
Meteor 1-16 Rocket 4.4 17:43:16 10° S 17:48:56 78° E 17:54:43 10° NNE
ISS -2.8 17:47:40 16° NNW 17:50:11 48° NE 17:53:33 10° ESE
USA 306 2.0 17:49:34 41° NW 17:50:34 89° NNE 17:54:08 10° SE
NOSS 3-3 (C) 4.4 17:45:04 13° SSW 17:50:43 55° SE 17:56:04 10° NE
Meteor 1-12 Rocket 4.5 17:45:49 10° SSW 17:51:29 50° W 17:57:11 10° NNW
Cosmos 1777 Rocket 3.9 17:47:36 10° NNW 17:52:51 81° WSW 17:58:11 10° SSE
CZ-2C R/B 2.9 17:50:26 10° NNE 17:54:03 69° ESE 17:57:40 10° S
S3M 4.0 17:48:04 10° SSW 17:54:25 65° W 18:00:45 10° N
NOSS 3-2 (C) 4.5 17:48:00 10° NNW 17:57:05 75° ENE 18:05:03 10° SE
Cosmos 1300 3.7 17:57:59 25° WNW 17:57:59 25° WNW 18:00:13 10° NNW
Cosmos 1953 2.8 17:55:46 10° S 17:59:43 61° E 18:03:34 10° NNE
Helios 1B rocket 3.0 17:56:07 10° NNE 17:59:57 56° ESE 18:03:52 10° S
Cosmos 1354 Rocket 3.9 17:55:29 10° NNW 18:00:47 79° WSW 18:06:11 10° SSE
Cosmos 1758 4.1 18:03:02 26° W 18:03:18 27° W 18:06:36 10° NNW
BREEZE-M DEB (TANK) 1.9 18:01:47 27° W 18:03:20 47° SSW 18:05:43 10° SE
Cosmos 304 Rocket 4.4 18:04:10 10° NW 18:08:29 33° WSW 18:12:53 10° S
Cosmos 1862 Rocket 3.8 18:04:25 10° NNW 18:08:34 44° WSW 18:12:48 10° S
Cosmos 1455 2.0 18:06:19 10° S 18:09:52 84° E 18:13:21 10° N
CZ-4B R/B 3.9 18:06:45 10° N 18:10:57 77° WNW 18:15:06 10° SSW
Cosmos 332 Rocket 3.7 18:06:34 10° NNW 18:11:21 71° WSW 18:16:14 10° SSE
Cosmos 1703 Rocket 4.1 18:07:49 10° N 18:12:13 63° E 18:16:41 10° SSE
Cosmos 1655 Rocket 4.0 18:06:18 10° NNW 18:12:34 65° W 18:18:58 10° S
Okean 1-7 2.9 18:08:34 10° N 18:12:53 80° W 18:17:17 10° S
Meteor 2-20 4.4 18:08:29 10° S 18:14:44 81° W 18:20:55 10° N
Cosmos 2263 Rocket 2.7 18:09:39 10° N 18:15:17 64° ENE 18:20:59 10° SSE
Cosmos 2315 Rocket 4.0 18:10:02 10° SSW 18:16:16 63° W 18:22:30 10° N
IGS 5A 3.4 18:12:35 10° NNE 18:16:40 86° WNW 18:20:51 10° SSW
CZ-3 R/B 4.0 18:05:44 11° W 18:17:46 24° NW 18:23:36 10° N
Genesis I 3.7 18:14:38 11° SSW 18:17:53 47° SE 18:21:13 10° NE
Cosmos 1867 3.7 18:13:51 10° NNW 18:19:14 83° ENE 18:24:40 10° SE
Cosmos 1733 Rocket 3.8 18:15:49 10° SSW 18:19:44 32° W 18:23:37 10° NNW
Cosmos 2227 Rocket 2.4 18:16:10 10° NW 18:21:38 48° WSW 18:27:10 10° SSE
Cosmos 2237 Rocket 3.1 18:17:51 14° SW 18:21:57 30° WNW 18:26:50 10° NNW
CZ-4C R/B 4.2 18:18:40 14° SW 18:22:05 18° SSW 18:26:29 10° SSE
Meteor 1-31 Rocket 2.8 18:19:01 10° N 18:22:40 51° W 18:26:21 10° SSW
BlueWalker 3 3.9 18:21:31 13° WNW 18:22:52 15° NW 18:25:05 10° NNW
Cosmos 1707 Rocket 4.5 18:19:42 10° NW 18:23:30 27° WSW 18:27:22 10° SSW
ADEOS Rocket 3.0 18:22:55 10° N 18:28:34 60° W 18:34:48 10° SSW
H-2A R/B (2) 4.5 18:23:26 10° NW 18:28:58 34° NNE 18:55:04 10° ENE
USA 276 3.6 18:29:19 13° SSW 18:30:14 15° S 18:31:42 10° SE
SMAP 4.3 18:26:55 10° NW 18:30:32 22° W 18:34:12 10° SW
USA 308 3.4 18:31:28 10° S 18:32:32 14° SE 18:33:50 10° ESE
YAOGAN 11 4.3 18:28:45 10° S 18:32:56 47° WSW 18:37:03 10° NW
YAOGAN 1 2.9 18:31:24 10° NNE 18:35:42 72° ESE 18:40:04 10° S
NOAA 6 4.0 18:31:23 10° N 18:36:31 75° WNW 18:41:44 10° SSW
Cosmos 2297 Rocket 3.4 18:33:32 10° W 18:37:49 21° SW 18:42:08 10° S
Aureole 1 Rocket 4.0 18:32:57 10° N 18:38:05 56° ENE 18:42:07 10° SSE
NOSS 3-3 (A) 3.8 18:33:01 10° SW 18:39:16 69° WNW 18:44:35 10° NNE
SL-16 R/B 2.2 18:33:35 10° SSW 18:39:18 72° WNW 18:44:58 10° NNE
COSMO-SKYMED 1 2.8 18:35:03 10° S 18:39:20 50° WSW 18:43:34 10° NNW
Cosmos 1300 Rocket 4.3 18:35:01 10° S 18:39:21 55° E 18:43:35 10° NNE
CENTAUR R/B 3.6 18:32:29 10° W 18:39:22 31° SW 18:45:14 10° SSE
Cosmos 2082 3.8 18:36:26 10° NNW 18:42:11 87° WSW 18:48:01 10° SSE
Lacrosse 5 3.4 18:37:38 10° NNW 18:42:27 42° NE 18:47:19 10° ESE
CZ-4B R/B 3.8 18:41:02 10° NNE 18:45:45 66° ESE 18:50:38 10° S
Cosmos 1538 Rocket 4.1 18:42:48 10° SSW 18:48:07 88° ESE 18:53:18 10° NNE
Cosmos 1898 Rocket 4.4 18:43:28 10° N 18:48:41 57° ENE 18:53:56 10° SSE
BREEZE-M DEB 3.3 18:49:03 10° WSW 18:50:59 20° S 18:52:44 10° SE
